Time,TemperatureF,DewpointF,PressureIn,WindDirection,WindDirectionDegrees,WindSpeedMPH,WindSpeedGustMPH,Humidity,HourlyPrecipIn,Conditions,Clouds,dailyrainin,SoftwareType,DateUTC
2013-09-13 00:11:00,71.3,66.0,29.82,ESE,103,3.0,3.0,82,0.00,,,0.26,weatherlink.com 1.10,2013-09-13 04:11:00,
2013-09-13 00:26:00,69.9,68.0,29.81,East,83,0.0,2.0,92,0.00,,,0.26,weatherlink.com 1.10,2013-09-13 04:26:00,
2013-09-13 00:41:00,69.0,67.0,29.80,SE,142,0.0,4.0,93,0.00,,,0.26,weatherlink.com 1.10,2013-09-13 04:41:00,
2013-09-13 00:56:00,68.8,67.0,29.80,SE,142,0.0,2.0,94,0.00,,,0.26,weatherlink.com 1.10,2013-09-13 04:56:00,
2013-09-13 01:11:00,68.8,67.0,29.81,ESE,112,0.0,3.0,93,0.00,,,0.26,weatherlink.com 1.10,2013-09-13 05:11:00,
2013-09-13 01:26:00,68.5,67.0,29.81,ESE,112,1.0,1.0,93,0.00,,,0.26,weatherlink.com 1.10,2013-09-13 05:26:00,
2013-09-13 01:42:00,67.9,67.0,29.80,SSW,211,1.0,3.0,95,0.00,,,0.26,weatherlink.com 1.10,2013-09-13 05:42:00,
2013-09-13 01:56:00,68.6,65.0,29.80,West,274,0.0,3.0,89,0.00,,,0.26,weatherlink.com 1.10,2013-09-13 05:56:00,
2013-09-13 02:11:00,68.8,66.0,29.80,SSE,160,0.0,3.0,92,0.00,,,0.26,weatherlink.com 1.10,2013-09-13 06:11:00,
2013-09-13 02:26:00,68.1,66.0,29.79,SE,140,1.0,2.0,93,0.00,,,0.26,weatherlink.com 1.10,2013-09-13 06:26:00,
2013-09-13 02:41:00,67.6,66.0,29.79,East,83,2.0,5.0,95,0.00,,,0.26,weatherlink.com 1.10,2013-09-13 06:41:00,
2013-09-13 02:56:00,67.5,66.0,29.78,NE,51,3.0,4.0,94,0.00,,,0.26,weatherlink.com 1.10,2013-09-13 06:56:00,
2013-09-13 03:11:00,67.2,66.0,29.78,NNW,340,0.0,2.0,95,0.00,,,0.26,weatherlink.com 1.10,2013-09-13 07:11:00,
2013-09-13 03:26:00,66.9,65.0,29.78,NNW,340,0.0,1.0,94,0.00,,,0.26,weatherlink.com 1.10,2013-09-13 07:26:00,
2013-09-13 03:41:00,66.9,66.0,29.78,East,96,0.0,1.0,95,0.00,,,0.26,weatherlink.com 1.10,2013-09-13 07:41:00,
2013-09-13 03:56:00,66.6,65.0,29.78,East,95,2.0,2.0,95,0.00,,,0.26,weatherlink.com 1.10,2013-09-13 07:56:00,
2013-09-13 04:11:00,66.8,65.0,29.77,East,83,0.0,5.0,95,0.01,,,0.27,weatherlink.com 1.10,2013-09-13 08:11:00,
2013-09-13 04:26:00,66.5,65.0,29.78,East,83,0.0,2.0,95,0.01,,,0.27,weatherlink.com 1.10,2013-09-13 08:26:00,
2013-09-13 04:41:00,65.8,64.0,29.78,East,83,0.0,2.0,95,0.01,,,0.27,weatherlink.com 1.10,2013-09-13 08:41:00,
2013-09-13 04:56:00,65.3,64.0,29.78,East,83,1.0,2.0,96,0.01,,,0.27,weatherlink.com 1.10,2013-09-13 08:56:00,
2013-09-13 05:11:00,64.9,64.0,29.78,East,83,0.0,2.0,96,0.00,,,0.27,weatherlink.com 1.10,2013-09-13 09:11:00,
2013-09-13 05:26:00,64.5,64.0,29.78,East,83,0.0,1.0,97,0.00,,,0.27,weatherlink.com 1.10,2013-09-13 09:26:00,
2013-09-13 05:41:00,64.4,64.0,29.79,East,83,0.0,0.0,97,0.00,,,0.27,weatherlink.com 1.10,2013-09-13 09:41:00,
2013-09-13 05:56:00,63.9,63.0,29.79,ESE,110,0.0,1.0,97,0.00,,,0.27,weatherlink.com 1.10,2013-09-13 09:56:00,
2013-09-13 06:11:00,63.9,63.0,29.80,ESE,110,1.0,2.0,97,0.00,,,0.00,weatherlink.com 1.10,2013-09-13 10:11:00,
2013-09-13 06:26:00,63.7,63.0,29.80,ESE,110,0.0,2.0,97,0.00,,,0.00,weatherlink.com 1.10,2013-09-13 10:26:00,
2013-09-13 06:41:00,63.5,63.0,29.80,ESE,110,0.0,1.0,97,0.00,,,0.00,weatherlink.com 1.10,2013-09-13 10:41:00,
2013-09-13 06:56:00,63.1,62.0,29.81,ESE,109,3.0,3.0,97,0.00,,,0.00,weatherlink.com 1.10,2013-09-13 10:56:00,
2013-09-13 07:11:00,63.8,63.0,29.81,ENE,74,0.0,2.0,97,0.00,,,0.00,weatherlink.com 1.10,2013-09-13 11:11:00,
2013-09-13 07:26:00,63.4,62.0,29.81,ENE,74,0.0,2.0,96,0.00,,,0.00,weatherlink.com 1.10,2013-09-13 11:26:00,
2013-09-13 07:41:00,63.4,63.0,29.82,ENE,73,0.0,2.0,97,0.00,,,0.00,weatherlink.com 1.10,2013-09-13 11:41:00,
2013-09-13 07:56:00,63.1,62.0,29.82,ENE,73,0.0,1.0,96,0.00,,,0.00,weatherlink.com 1.10,2013-09-13 11:56:00,
2013-09-13 08:11:00,63.6,63.0,29.83,ENE,66,0.0,0.0,97,0.00,,,0.00,weatherlink.com 1.10,2013-09-13 12:11:00,
2013-09-13 08:26:00,64.7,63.0,29.83,ENE,66,0.0,0.0,95,0.00,,,0.00,weatherlink.com 1.10,2013-09-13 12:26:00,
2013-09-13 08:41:00,65.1,63.0,29.82,ESE,107,1.0,4.0,94,0.00,,,0.00,weatherlink.com 1.10,2013-09-13 12:41:00,
2013-09-13 08:57:00,65.8,64.0,29.82,ESE,107,0.0,1.0,93,0.00,,,0.00,weatherlink.com 1.10,2013-09-13 12:57:00,
2013-09-13 09:12:00,68.4,66.0,29.82,SE,131,0.0,3.0,91,0.00,,,0.00,weatherlink.com 1.10,2013-09-13 13:12:00,
2013-09-13 09:27:00,70.6,66.0,29.82,SE,144,1.0,5.0,86,0.00,,,0.00,weatherlink.com 1.10,2013-09-13 13:27:00,
2013-09-13 09:42:00,71.5,66.0,29.82,SE,126,0.0,3.0,82,0.00,,,0.00,weatherlink.com 1.10,2013-09-13 13:42:00,
2013-09-13 09:57:00,72.8,66.0,29.83,SE,145,1.0,4.0,80,0.00,,,0.00,weatherlink.com 1.10,2013-09-13 13:57:00,
2013-09-13 10:12:00,73.2,65.0,29.83,SSE,147,1.0,2.0,75,0.00,,,0.00,weatherlink.com 1.10,2013-09-13 14:12:00,
2013-09-13 10:27:00,74.3,64.0,29.83,WNW,303,2.0,4.0,71,0.00,,,0.00,weatherlink.com 1.10,2013-09-13 14:27:00,
2013-09-13 10:42:00,74.8,63.0,29.83,WNW,303,0.0,4.0,66,0.00,,,0.00,weatherlink.com 1.10,2013-09-13 14:42:00,
2013-09-13 10:57:00,76.1,64.0,29.83,NW,308,3.0,4.0,67,0.00,,,0.00,weatherlink.com 1.10,2013-09-13 14:57:00,
2013-09-13 11:12:00,76.3,64.0,29.83,NNW,331,1.0,3.0,66,0.00,,,0.00,weatherlink.com 1.10,2013-09-13 15:12:00,
2013-09-13 11:27:00,76.6,64.0,29.83,SSW,199,2.0,4.0,65,0.00,,,0.00,weatherlink.com 1.10,2013-09-13 15:27:00,
2013-09-13 11:42:00,77.1,63.0,29.83,WNW,301,1.0,4.0,63,0.00,,,0.00,weatherlink.com 1.10,2013-09-13 15:42:00,
2013-09-13 11:57:00,78.1,63.0,29.83,NE,51,2.0,4.0,61,0.00,,,0.00,weatherlink.com 1.10,2013-09-13 15:57:00,
2013-09-13 12:12:00,78.9,63.0,29.82,NNW,336,2.0,5.0,58,0.00,,,0.00,weatherlink.com 1.10,2013-09-13 16:12:00,
2013-09-13 12:27:00,79.8,63.0,29.82,South,181,3.0,6.0,57,0.00,,,0.00,weatherlink.com 1.10,2013-09-13 16:27:00,
2013-09-13 12:42:00,79.8,62.0,29.82,WSW,245,2.0,4.0,55,0.00,,,0.00,weatherlink.com 1.10,2013-09-13 16:42:00,
2013-09-13 12:57:00,79.5,60.0,29.81,West,273,1.0,3.0,52,0.00,,,0.00,weatherlink.com 1.10,2013-09-13 16:57:00,
2013-09-13 13:12:00,80.9,61.0,29.81,WNW,297,2.0,5.0,51,0.00,,,0.00,weatherlink.com 1.10,2013-09-13 17:12:00,
2013-09-13 13:27:00,79.8,61.0,29.81,NW,322,2.0,7.0,52,0.00,,,0.00,weatherlink.com 1.10,2013-09-13 17:27:00,
2013-09-13 13:42:00,80.3,59.0,29.80,North,354,0.0,6.0,49,0.00,,,0.00,weatherlink.com 1.10,2013-09-13 17:42:00,
2013-09-13 13:57:00,80.1,60.0,29.80,NNW,342,3.0,4.0,50,0.00,,,0.00,weatherlink.com 1.10,2013-09-13 17:57:00,
2013-09-13 14:12:00,80.8,60.0,29.79,NW,315,8.0,11.0,49,0.00,,,0.00,weatherlink.com 1.10,2013-09-13 18:12:00,
2013-09-13 14:27:00,80.7,60.0,29.79,West,271,3.0,6.0,50,0.00,,,0.00,weatherlink.com 1.10,2013-09-13 18:27:00,
2013-09-13 14:42:00,80.0,62.0,29.79,NE,38,5.0,7.0,54,0.00,,,0.00,weatherlink.com 1.10,2013-09-13 18:42:00,
2013-09-13 14:57:00,79.6,61.0,29.79,SSE,166,3.0,6.0,53,0.00,,,0.00,weatherlink.com 1.10,2013-09-13 18:57:00,
2013-09-13 15:12:00,80.7,62.0,29.78,East,90,1.0,4.0,54,0.00,,,0.00,weatherlink.com 1.10,2013-09-13 19:12:00,
2013-09-13 15:27:00,80.5,63.0,29.78,SE,135,0.0,4.0,56,0.00,,,0.00,weatherlink.com 1.10,2013-09-13 19:27:00,
2013-09-13 15:42:00,80.0,62.0,29.78,ENE,62,1.0,6.0,55,0.00,,,0.00,weatherlink.com 1.10,2013-09-13 19:42:00,
2013-09-13 15:57:00,80.9,63.0,29.78,NW,316,3.0,5.0,55,0.00,,,0.00,weatherlink.com 1.10,2013-09-13 19:57:00,
2013-09-13 16:12:00,82.3,62.0,29.78,NNE,24,1.0,5.0,50,0.00,,,0.00,weatherlink.com 1.10,2013-09-13 20:12:00,
2013-09-13 16:28:00,81.4,63.0,29.78,East,85,3.0,5.0,54,0.00,,,0.00,weatherlink.com 1.10,2013-09-13 20:28:00,
2013-09-13 16:43:00,79.7,64.0,29.78,ENE,57,2.0,3.0,58,0.00,,,0.00,weatherlink.com 1.10,2013-09-13 20:43:00,
2013-09-13 16:58:00,80.0,62.0,29.78,NNE,28,1.0,7.0,55,0.00,,,0.00,weatherlink.com 1.10,2013-09-13 20:58:00,
2013-09-13 17:13:00,81.6,62.0,29.78,NNE,14,5.0,6.0,51,0.00,,,0.00,weatherlink.com 1.10,2013-09-13 21:13:00,
2013-09-13 17:28:00,81.2,62.0,29.78,NNW,343,2.0,5.0,52,0.00,,,0.00,weatherlink.com 1.10,2013-09-13 21:28:00,
2013-09-13 17:43:00,80.0,62.0,29.78,ENE,64,0.0,4.0,54,0.00,,,0.00,weatherlink.com 1.10,2013-09-13 21:43:00,
2013-09-13 17:58:00,80.2,60.0,29.78,NE,47,3.0,3.0,51,0.00,,,0.00,weatherlink.com 1.10,2013-09-13 21:58:00,
2013-09-13 18:13:00,78.7,60.0,29.78,ESE,105,1.0,4.0,52,0.00,,,0.00,weatherlink.com 1.10,2013-09-13 22:13:00,
2013-09-13 18:28:00,77.6,60.0,29.79,ENE,71,3.0,6.0,54,0.00,,,0.00,weatherlink.com 1.10,2013-09-13 22:28:00,
2013-09-13 18:43:00,75.5,59.0,29.79,ENE,78,2.0,6.0,57,0.00,,,0.00,weatherlink.com 1.10,2013-09-13 22:43:00,
2013-09-13 18:58:00,74.4,59.0,29.79,NNE,12,1.0,3.0,59,0.00,,,0.00,weatherlink.com 1.10,2013-09-13 22:58:00,
2013-09-13 19:13:00,73.8,58.0,29.80,West,262,0.0,2.0,58,0.00,,,0.00,weatherlink.com 1.10,2013-09-13 23:13:00,
2013-09-13 19:28:00,72.5,57.0,29.81,NE,50,0.0,4.0,59,0.00,,,0.00,weatherlink.com 1.10,2013-09-13 23:28:00,
2013-09-13 19:43:00,71.4,57.0,29.81,North,4,0.0,4.0,60,0.00,,,0.00,weatherlink.com 1.10,2013-09-13 23:43:00,
2013-09-13 19:58:00,70.5,54.0,29.82,ENE,57,0.0,7.0,57,0.00,,,0.00,weatherlink.com 1.10,2013-09-13 23:58:00,
2013-09-13 20:13:00,69.9,55.0,29.82,ENE,68,0.0,2.0,59,0.00,,,0.00,weatherlink.com 1.10,2013-09-14 00:13:00,
2013-09-13 20:28:00,69.2,55.0,29.83,ENE,76,0.0,5.0,60,0.00,,,0.00,weatherlink.com 1.10,2013-09-14 00:28:00,
2013-09-13 20:43:00,68.4,53.0,29.83,East,91,0.0,3.0,59,0.00,,,0.00,weatherlink.com 1.10,2013-09-14 00:43:00,
2013-09-13 20:58:00,67.6,53.0,29.84,East,93,1.0,3.0,60,0.00,,,0.00,weatherlink.com 1.10,2013-09-14 00:58:00,
2013-09-13 21:13:00,66.8,54.0,29.85,East,92,1.0,2.0,64,0.00,,,0.00,weatherlink.com 1.10,2013-09-14 01:13:00,
2013-09-13 21:28:00,66.6,54.0,29.85,ENE,74,0.0,3.0,65,0.00,,,0.00,weatherlink.com 1.10,2013-09-14 01:28:00,
2013-09-13 21:43:00,66.4,54.0,29.86,East,93,1.0,3.0,64,0.00,,,0.00,weatherlink.com 1.10,2013-09-14 01:43:00,
2013-09-13 21:58:00,65.7,54.0,29.86,ENE,75,0.0,2.0,66,0.00,,,0.00,weatherlink.com 1.10,2013-09-14 01:58:00,
2013-09-13 22:13:00,65.4,53.0,29.86,East,81,0.0,2.0,65,0.00,,,0.00,weatherlink.com 1.10,2013-09-14 02:13:00,
2013-09-13 22:28:00,65.2,53.0,29.87,SE,127,0.0,2.0,66,0.00,,,0.00,weatherlink.com 1.10,2013-09-14 02:28:00,
2013-09-13 22:43:00,64.8,53.0,29.87,NE,56,0.0,3.0,66,0.00,,,0.00,weatherlink.com 1.10,2013-09-14 02:43:00,
2013-09-13 22:58:00,64.8,54.0,29.87,NE,52,0.0,4.0,67,0.00,,,0.00,weatherlink.com 1.10,2013-09-14 02:58:00,
2013-09-13 23:13:00,64.5,53.0,29.88,East,98,2.0,2.0,66,0.00,,,0.00,weatherlink.com 1.10,2013-09-14 03:13:00,
2013-09-13 23:28:00,64.6,53.0,29.88,East,83,0.0,5.0,66,0.00,,,0.00,weatherlink.com 1.10,2013-09-14 03:28:00,
2013-09-13 23:43:00,64.4,52.0,29.88,ENE,62,3.0,4.0,65,0.00,,,0.00,weatherlink.com 1.10,2013-09-14 03:43:00,
2013-09-13 23:58:00,63.6,53.0,29.88,ENE,66,0.0,3.0,68,0.00,,,0.00,weatherlink.com 1.10,2013-09-14 03:58:00,